Regional Weather Roundup
Issued by NWS Northern Indiana

Home | Current Version | Previous Version | Graphics & Text | Print | Product List | Glossary On
Versions: 1 2 3 4 5 6 7 8 9 10 11 12 13 14 15 16 17 18 19 20 21 22 23 24 25 26 27 28 29 30 31 32 33 34 35 36 37 38 39 40 41 42 43 44 45 46 47 48 49 50
276
ASUS43 KIWX 130810
RWRIWX

KIWX WEATHER ROUNDUP
NATIONAL WEATHER SERVICE NORTHERN INDIANA
300 AM EST SAT FEB 13 2016

NOTE: "FAIR" INDICATES FEW OR NO CLOUDS BELOW 12,000 FEET WITH NO
SIGNIFICANT WEATHER AND/OR OBSTRUCTIONS TO VISIBILITY.

* THESE STATIONS ARE NOT UNDER NWS QUALITY CONTROL. THEY ALSO MAY NOT
  REPORT WEATHER SUCH AS PRECIPITATION OR FOG.

INZ001>027-130900-
NORTHERN INDIANA

CITY           SKY/WX    TMP DP  RH WIND       PRES   REMARKS
GARY*          MOCLDY    10  -8  44 W15       30.50R WCI  -7
VALPARAISO     CLOUDY    11   0  61 NW14G24   30.44R WCI  -5
MICHIGAN CITY* FLURRIES  14   1  57 NW14G24   30.44R WCI  -1
LAPORTE*       LGT SNOW  13   8  79 NW10      30.41R WCI   0
KNOX*          CLOUDY    12   9  85 NW13      30.42R WCI  -3
SOUTH BEND     MOCLDY     7   3  84 NE3       30.40R
GOSHEN         CLOUDY     7   0  73 N9        30.39R WCI  -7
MONTICELLO*    CLEAR      9  -7  49 NW13G21   30.45R WCI  -7
LOGANSPORT*    CLEAR     10  -4  52 W12G20    30.43R WCI  -4
ROCHESTER*     FLURRIES  14   5  67 NW12      30.40R WCI   0
WARSAW*        CLOUDY    10   3  72 NE8       30.38R WCI  -1
ANGOLA*        CLEAR      3  -6  66 CALM      30.33R
FORT WAYNE     PTCLDY     8  -3  61 N13       30.38R WCI  -8
HUNTINGTON*    LGT SNOW  10   2  72 N8        30.38R WCI  -3
PERU/GRISSOM   PTCLDY    11   3  70 NW16      30.38R WCI  -6
MARION*        CLOUDY    11   0  59 NW15G21   30.39R WCI  -5

$$
INZ028>050-130900-
CENTRAL INDIANA

CITY           SKY/WX    TMP DP  RH WIND       PRES   REMARKS
LAFAYETTE      CLEAR      9  -4  55 NW12      30.47R WCI  -6
KOKOMO*        CLEAR     10   0  61 NW16G22   30.39R WCI  -7
MUNCIE*        PTCLDY    11   2  67 NW12      30.37R WCI  -3
INDIANAPOLIS   CLEAR     12  -2  53 NW16      30.41R WCI  -5

$$
MIZ043>046-050>051-056>058-064>065-071>073-077>080-130900-
SOUTHWEST LOWER MICHIGAN

CITY           SKY/WX    TMP DP  RH WIND       PRES   REMARKS
BATTLE CREEK   CLEAR      3  -7  63 NW7       30.35R WCI  -9
BENTON HARBOR  LGT SNOW  12   7  80 N9        30.41R VSB 3/4 WCI   0
COLDWATER*     CLEAR      3  -8  58 NW5       30.34R WCI  -6
HILLSDALE*     CLEAR      3 -10  56 NW10      30.30R WCI -13
HOLLAND        LGT SNOW   8   2  76 N3        30.39R
GRAND RAPIDS   CLEAR      3  -3  76 W6        30.36R WCI  -8
KALAMAZOO      MOCLDY     1  -8  66 NW5       30.36R WCI  -9
STURGIS*       PTCLDY     2  -7  65 N3        30.36R
THREE RIVERS*  FAIR       2  -6  68 CALM      30.38R

$$
OHZ001>008-015>018-024>025-130900-
NORTHWEST OHIO

CITY           SKY/WX    TMP DP  RH WIND       PRES   REMARKS
DEFIANCE       CLEAR      8  -4  58 N9        30.37R WCI  -5
FINDLAY        CLEAR      8  -3  61 N9        30.32R WCI  -5
TOLEDO EXPRESS MOCLDY     6  -5  60 NW9       30.34R WCI  -8
TOLEDO METCALF CLEAR      8  -7  50 NW13      30.35R WCI  -8
LIMA           MOCLDY     9  -2  61 N14G24    30.31R WCI  -7

$$
AND FOR LAKE MICHIGAN COASTAL AND OPEN LAKE BUOY OBSERVATIONS

STATION/POSITION TEMP    WIND        PRES    VSBY  WAVE
                 AIR SEA DIR/SP/G                  HT/PER
                 (F)     (DEG/KT/KT) (MB)    (MI)  (FT/S)
CALUMET HARBOR     8     310/ 10/ 16 1031.4
MICHIGAN CITY     13     300/ 26/ 30   N/A
BURNS HARBOR      13     320/ 18/ 25 1030.1S
SAINT JOSEPH      15     300/ 20/ 26 1030.8R

$$
&&




USA.gov is the U.S. government's official web portal to all federal, state and local government web resources and services.